Regional Weather Roundup
Issued by NWS

Home | Current Version | Previous Version | Text Only | Print | Product List | Glossary On
Versions: 1 2 3 4 5 6 7 8 9 10 11 12 13 14 15 16 17 18 19 20 21 22 23 24 25 26 27 28
000
ASUS42 KKEY 181410
RWRKEY

FLORIDA REGIONAL WEATHER ROUNDUP FOR THE FLORIDA KEYS
NATIONAL WEATHER SERVICE KEY WEST FLORIDA
1000 AM EDT FRI APR 18 2014

...SOUTH FLORIDA AND THE KEYS...

CITY           SKY/WX    TMP DP  RH WIND       PRES   REMARKS
FORT MYERS     CLOUDY    77  71  82 SE12G17   30.02F
SW REGIONAL AP CLOUDY    76  70  82 SE13      30.03S
NAPLES         CLOUDY    77  74  90 SE9       30.03S
MIAMI          PTSUNNY   80  69  69 SE15      30.06F
WEST KENDALL   MOSUNNY   81  69  67 SE15G26   30.06F
HOMESTEAD      MOSUNNY   81  70  70 SE14G21   30.06F
MARATHON       SUNNY     82  72  71 SE12G21   30.04S
BOCA CHICA NAS MOSUNNY   83  72  69 SE20      30.03S
KEY WEST INTL  SUNNY     81  73  76 SE16      30.03F

...INTERNATIONAL WEATHER...

CITY           SKY/WX    TMP DP  RH WIND       PRES   REMARKS
NASSAU BAHAMAS MOSUNNY   81  68  65 SE18      30.10R
CANCUN MEXICO  PTSUNNY   82  75  78 SE10      29.97R
COZUMEL MEXICO MOSUNNY   81  73  78 SE9       29.96S

ADJACENT COASTAL WATERS...

STATION/POSITION TIME  SKY/WX   TEMP    WIND        PRES    WAVE
                                AIR SEA DIR/SP/G            HT/PER
                 (UTC)          (F)     (DEG/KT/KT) (MB)    (FT/S)
PULASKI SHOAL LI NOT AVBL
SAND KEY         NOT AVBL
SOMBRERO KEY     1400            80     130/ 20/ 22 1017.7F
LONG KEY         1400            80 80  150/ 17/ 19 1017.8F
MOLASSES REEF    1400            78 78  130/ 16/ 18 1017.5F
FOWEY ROCKS      1400            78 78  130/ 18/ 21 1017.7F
Buoy 42080       NOT AVBL

$$



USA.gov is the U.S. government's official web portal to all federal, state and local government web resources and services.